Regional Weather Roundup
Issued by NWS

Home | Current Version | Previous Version | Text Only | Print | Product List | Glossary On
Versions: 1 2 3 4 5 6 7 8 9 10 11 12 13 14 15 16 17 18 19 20 21 22 23 24 25 26 27 28 29 30 31 32 33 34 35 36 37 38 39 40 41 42 43 44 45 46 47 48 49 50
000
ASUS45 KABQ 222310
RWRNM
NEW MEXICO REGIONAL WEATHER ROUNDUP
NATIONAL WEATHER SERVICE ALBUQUERQUE NM
500 PM MDT THU JUN 22 2017

NOTE: "FAIR" MEANS FEW OR NO CLOUDS BELOW 12,000 FEET AGL WITH NO
       SIGNIFICANT WEATHER OR OBSTRUCTIONS TO VISION.

      THIS PRODUCT IS RELEASED AS TWO VERSIONS.  ONE VERSION NEAR
      THE TOP OF THE HOUR CONTAINING PRELIMINARY DATA FROM ALBUQUERQUE
      AND OTHER STATIONS.  A FINAL VERSION WITH ADDITIONAL DATA IS
      ISSUED ABOUT 10 MINUTES AFTER THE HOUR.

NMZ501-503-504-510>518-230000-
NORTHWEST PLATEAU/NORTHCENTRAL MOUNTAINS

CITY           SKY/WX    TMP DP  RH WIND       PRES   REMARKS
FARMINGTON     FAIR      98  12   4 W23G35    29.90F
LOS ALAMOS     FAIR      89  32  13 S7        30.07F
SANTA FE       FAIR      94  31  10 CALM      29.98F
TAOS           FAIR      90  30  12 NW13G24   30.05F
ANGEL FIRE     FAIR      78  39  24 SW12      30.18F

$$
NMZ402-403-502-505>509-230000-
WESTCENTRAL MOUNTAINS/SOUTHWEST MOUNTAINS

CITY           SKY/WX    TMP DP  RH WIND       PRES   REMARKS
GALLUP         FAIR      97  22   7 W18G28    30.04F
GRANTS         FAIR      94  26   8 W26G36    30.04F
SILVER CITY    FAIR      94  38  14 NW18G24   29.97R

$$
NMZ407-409-411-412-230000-
SOUTHERN DESERTS

CITY           SKY/WX    TMP DP  RH WIND       PRES   REMARKS
DEMING         FAIR      89  52  28 NE24G31   29.86R
LAS CRUCES     FAIR     104  31   8 NW8       29.82F HX  97
HOLLOMAN AFB   FAIR     105  27   6 NE3       29.78F HX  98
ALAMOGORDO     FAIR     106  32   8 N3G21     29.78F HX  99
T OR C         FAIR     102  29   7 W9        29.83F HX  95

$$
NMZ519>523-230000-
CENTRAL VALLEYS/CENTRAL HIGHLANDS

CITY           SKY/WX    TMP DP  RH WIND       PRES   REMARKS
ALBUQUERQUE    FAIR     101  24   6 W18       29.88F
DOUBLE EAGLE   PTSUNNY   99  32   9 NW8G22    29.95F
MORIARTY ARPT  PTSUNNY   88  45  22 N8        29.98S
CLINES CORNERS FAIR      90  31  12 NW17G24   30.05F
BELEN          FAIR     103  27   7 NW15G29   29.88F HX  96
SOCORRO        FAIR     100  38  11 E3        29.85F

$$
NMZ524>526-539-540-230000-
SOUTHCENTRAL MOUNTAINS

CITY           SKY/WX    TMP DP  RH WIND       PRES   REMARKS
RUIDOSO        FAIR      93  34  12 NW12G23   30.05F

$$
NMZ527>531-230000-
NORTHEAST HIGHLANDS/NORTHEAST PLAINS

CITY           SKY/WX    TMP DP  RH WIND       PRES   REMARKS
LAS VEGAS      FAIR      88  34  14 SE10      30.04F
RATON          FAIR      94  25   8 NW8       29.95F
CLAYTON        FAIR      91  44  19 S7        29.82S

$$
NMZ532>537-230000-
EASTCENTRAL PLAINS

CITY           SKY/WX    TMP DP  RH WIND       PRES   REMARKS
TUCUMCARI      FAIR     104  36   9 N7        29.70S HX  98
CANNON AFB     FAIR     102  47  15 SE13      29.76F HX  98
CLOVIS AIRPORT FAIR      99  56  23 SE18G25   29.76F HX  97

$$
NMZ028-029-538-230000-
SOUTHEAST PLAINS

CITY           SKY/WX    TMP DP  RH WIND       PRES   REMARKS
ROSWELL        FAIR     107  43  11 S10       29.69F HX 102
ARTESIA        FAIR     104  46  14 SE8G17    29.71S HX 100
CARLSBAD       CLOUDY   104  47  14 SE9       29.69F HX 100
HOBBS          SUNNY    100  45  15 S7        29.76F HX  96


$$




USA.gov is the U.S. government's official web portal to all federal, state and local government web resources and services.